Wind_Speed
22 21 22 22 22 23 22 22 23 23 23 22 21 21 20 19 19 19 18 18 17 16 16 17 17 18 18 18 18 17 17 18 18 17 17 15 14 12 11 11 11 11 10 11 12 12 12 11 10 10 13 12 11 12 15 18 19 19 19 19 20 20 21 21 22 22 22 23 23 20 18 19 19 17 14 13 15 16 18 20 19 20 19 19 19
25 23 22 23 22 22 22 21 22 22 22 21 21 21 20 19 18 18 18 17 16 16 16 16 16 17 17 18 18 17 17 17 17 17 16 14 13 12 11 12 12 11 10 11 12 12 12 11 10 9 11 12 13 15 17 18 19 19 20 20 21 21 21 21 21 22 23 23 24 23 19 18 20 19 16 13 14 16 18 19 19 20 19 17 18
25 25 24 23 22 21 21 21 21 22 21 21 21 20 20 19 18 18 18 17 16 16 16 16 16 16 16 17 18 17 17 16 16 16 15 14 13 12 11 10 11 11 11 11 11 11 11 11 11 10 11 13 16 16 17 17 19 20 21 22 23 24 23 22 22 22 23 23 22 23 22 18 18 21 20 17 15 17 17 17 18 18 17 17 17
23 25 26 24 22 21 20 20 21 21 21 20 20 20 20 19 18 18 17 17 16 15 15 15 15 15 15 16 17 16 16 15 14 14 13 13 12 11 10 9 9 9 10 11 10 10 11 11 11 11 13 15 15 16 17 18 20 22 24 25 25 25 25 24 23 23 22 21 20 21 22 20 17 20 21 20 17 16 16 16 17 15 16 18 18
23 26 26 25 23 20 20 20 20 21 20 20 20 21 20 19 18 18 17 16 15 15 15 14 14 14 14 15 15 15 15 14 13 12 12 11 10 9 9 7 7 7 9 10 10 10 10 10 10 11 14 15 15 16 18 20 21 22 24 25 26 25 25 24 22 22 20 18 18 18 19 20 16 19 21 21 18 16 15 15 14 13 15 17 16
23 26 27 25 24 21 20 20 20 21 20 19 20 21 20 19 18 17 17 16 14 14 14 13 13 13 13 14 14 14 14 13 12 11 10 10 9 8 7 7 5 5 8 10 9 9 10 10 10 11 13 14 14 16 18 20 20 21 23 25 26 25 24 23 21 20 17 15 14 14 15 17 15 17 20 21 18 16 15 14 12 11 13 15 14
23 26 27 25 24 21 20 20 20 21 20 19 20 20 20 18 17 17 16 15 13 14 13 12 13 13 13 12 13 13 13 12 11 10 9 9 8 7 7 6 5 4 7 9 8 8 10 10 9 10 12 13 14 15 17 18 19 21 23 25 25 24 23 21 20 18 14 11 10 12 13 15 14 15 19 20 18 16 16 16 14 12 14 15 14
25 26 26 25 23 22 21 20 20 20 19 19 19 20 19 18 17 16 16 14 13 13 12 11 13 13 13 12 12 12 12 12 11 10 9 8 7 7 6 6 5 5 6 8 8 8 9 10 9 9 11 12 13 14 16 17 19 21 23 24 24 23 21 19 18 15 12 9 8 10 11 14 15 14 17 19 18 16 16 16 14 13 14 14 14
26 27 25 24 23 22 21 21 20 20 19 19 19 19 19 18 17 16 15 13 13 13 11 11 12 12 13 12 12 12 11 10 10 10 9 8 8 7 6 5 5 5 6 6 8 8 9 10 10 9 9 11 12 13 15 17 19 20 21 22 22 22 20 18 16 13 10 9 9 8 10 14 13 12 16 17 18 17 16 16 15 14 15 14 14
27 27 25 24 23 22 21 20 20 19 19 19 19 19 19 17 16 16 14 13 13 12 10 10 11 12 13 12 12 11 10 9 9 9 9 9 8 8 7 5 5 5 6 6 6 8 9 9 10 9 9 10 11 12 14 16 18 19 20 21 21 22 20 17 15 12 10 9 8 6 10 14 11 11 14 16 16 16 17 17 17 16 15 15 14
27 26 24 23 23 22 21 20 20 19 19 18 19 19 18 17 17 16 14 13 13 11 10 10 11 12 12 12 12 11 10 9 8 9 10 9 9 9 8 6 6 6 6 6 6 7 8 9 9 9 9 10 11 12 13 15 17 18 20 21 21 21 20 16 13 11 10 7 7 6 11 12 8 10 13 15 15 15 17 17 17 17 16 16 16
25 25 24 23 23 22 21 21 20 20 19 18 19 18 17 17 17 15 13 13 13 12 11 11 11 11 12 13 13 12 11 10 9 9 9 8 8 9 8 7 5 5 6 6 6 6 7 9 9 9 8 9 10 11 13 14 15 17 19 20 20 20 19 15 11 9 8 5 7 7 11 10 7 9 12 14 14 15 16 17 17 17 17 17 16
25 24 24 23 23 22 21 21 21 20 19 19 19 18 17 17 16 15 13 13 13 12 12 12 11 12 13 15 14 13 11 11 10 9 8 7 7 7 8 7 6 5 4 5 5 4 5 6 8 9 8 9 9 10 11 13 15 17 18 19 19 19 18 15 10 8 5 4 7 7 11 10 7 9 11 12 13 14 15 16 17 18 18 18 17
24 25 24 24 24 22 22 21 21 21 20 20 19 19 18 17 16 15 14 14 14 13 13 13 13 14 14 15 14 13 11 10 9 8 7 6 6 6 7 7 6 5 4 4 4 4 4 4 6 8 8 8 7 8 10 12 15 16 17 18 18 18 18 13 9 7 3 4 6 7 10 10 7 8 10 11 12 12 13 14 16 17 17 18 18
22 26 25 24 25 23 22 21 21 22 21 21 20 20 18 18 16 15 15 15 14 14 13 14 14 15 14 14 13 12 10 9 9 8 7 6 6 6 6 6 6 5 4 4 3 3 3 3 4 6 7 7 6 6 8 11 13 15 16 17 17 17 17 12 7 6 2 5 6 6 8 9 8 8 9 10 11 12 12 13 14 15 16 17 18
23 26 25 24 25 24 23 22 22 22 22 22 21 20 19 18 17 16 16 15 14 14 14 14 14 15 14 14 13 11 9 8 8 7 6 5 5 5 6 7 6 5 4 4 4 3 3 3 4 3 6 7 7 6 6 8 11 14 15 15 16 16 16 11 5 4 1 4 6 6 8 9 8 7 8 9 10 11 11 12 12 13 14 15 16
24 25 25 25 25 25 24 23 22 22 22 22 21 20 19 18 18 17 16 15 14 14 14 14 14 14 14 13 12 11 9 8 7 5 5 5 5 5 6 7 7 6 5 5 5 4 3 3 4 3 3 5 7 6 5 5 9 12 12 13 15 15 15 11 5 3 1 3 4 7 9 9 8 7 6 8 8 10 10 11 11 11 12 13 14
25 25 25 25 25 25 25 24 24 24 23 22 21 20 19 18 18 17 16 15 14 14 14 13 13 13 12 12 11 11 9 7 6 5 5 5 5 5 6 7 7 7 6 6 6 4 3 3 3 3 2 2 4 5 5 4 6 8 11 13 13 14 14 9 4 3 1 2 2 5 8 9 8 7 5 6 7 8 9 9 10 10 11 11 12
25 25 24 24 25 26 26 25 25 25 24 23 21 19 19 18 17 17 15 14 14 13 13 12 12 11 12 12 11 10 9 7 6 6 6 5 5 5 5 5 5 5 5 6 6 5 4 3 3 3 2 2 2 3 5 4 5 7 11 13 12 12 12 8 5 3 2 4 3 5 7 8 8 8 5 5 6 6 7 8 9 9 10 10 11
25 24 24 24 25 25 26 26 26 26 24 24 22 20 20 18 17 16 14 13 13 13 12 12 12 11 11 11 10 10 8 7 7 6 6 5 4 4 4 4 3 3 4 5 5 5 5 3 3 3 3 3 3 3 5 5 5 8 11 13 12 11 10 7 6 5 4 6 5 4 7 8 9 8 6 5 4 5 5 6 7 8 9 9 10
25 24 23 24 24 23 25 25 26 25 24 24 23 21 20 19 18 16 15 14 13 13 12 12 11 12 12 11 11 9 8 7 7 6 6 5 4 3 3 3 2 2 2 3 4 5 5 4 4 3 4 4 4 5 6 6 6 8 11 13 13 11 9 6 5 4 6 7 5 4 5 7 8 8 7 5 4 4 4 4 5 7 8 8 9
26 25 24 23 22 23 24 24 24 24 24 23 21 21 19 18 18 17 16 14 14 14 13 12 12 13 12 11 10 9 8 7 6 6 5 4 3 2 3 2 1 0 0 1 3 4 4 5 4 3 4 5 6 7 7 6 6 6 9 13 13 12 9 4 3 4 9 7 5 5 5 6 7 7 6 6 4 3 2 2 4 5 6 7 8
25 25 25 22 22 24 23 22 22 23 23 22 21 20 19 18 17 17 16 15 15 15 14 12 12 12 11 10 9 8 8 7 6 5 4 3 3 2 2 2 1 1 1 1 2 3 4 5 5 5 6 9 10 10 10 9 8 5 5 10 12 10 8 3 3 4 9 8 6 5 5 6 6 6 5 5 4 4 1 1 2 3 4 5 6
25 25 25 22 21 24 24 22 22 22 22 21 20 19 19 18 17 17 16 16 16 15 14 12 12 11 10 10 9 8 8 7 6 5 4 3 3 3 2 2 2 2 3 3 2 2 3 5 6 7 8 10 10 11 11 10 10 8 3 6 8 8 6 3 3 5 9 8 7 5 4 5 5 5 5 5 4 4 3 1 2 2 2 3 4
25 24 25 22 21 24 24 23 22 21 21 21 20 18 18 18 18 18 16 16 15 15 14 13 13 11 10 10 8 9 8 8 6 5 4 3 3 3 3 2 2 2 3 3 3 3 3 4 5 7 8 8 9 10 10 9 9 10 7 6 4 3 6 6 6 7 9 9 7 5 4 4 4 4 4 4 4 4 4 1 2 2 1 1 2
25 25 24 21 21 24 24 23 22 20 21 20 19 18 18 17 18 18 16 15 14 14 13 13 13 12 11 10 10 10 9 8 6 5 3 3 4 4 3 3 3 3 3 3 3 4 3 3 4 5 7 7 7 7 7 6 4 7 9 8 5 4 8 10 10 10 11 10 9 7 5 4 4 4 3 3 3 3 3 2 0 3 3 2 2
25 25 23 20 20 23 24 22 21 20 21 20 19 19 17 17 17 17 16 15 14 14 14 13 13 12 11 10 11 11 9 8 5 4 4 4 4 4 4 4 3 3 4 4 3 3 3 4 4 4 5 5 5 4 5 4 2 6 7 7 8 7 9 12 12 11 11 11 10 9 7 4 3 3 3 3 2 3 3 3 2 2 4 4 4
24 24 22 20 20 23 22 20 20 20 20 19 18 19 18 18 18 16 15 14 13 12 13 12 12 12 11 10 10 10 10 7 5 5 5 5 5 5 4 4 4 4 4 5 5 4 4 5 4 3 4 4 4 3 4 4 4 7 8 8 11 10 9 12 13 12 11 10 10 8 6 4 2 2 3 3 4 3 3 3 3 2 4 6 5
23 24 23 21 20 21 21 20 22 22 20 18 18 18 18 18 18 17 15 14 13 12 12 12 11 11 11 10 10 10 8 6 5 6 6 6 6 5 5 4 5 5 5 6 7 7 5 5 5 4 4 3 4 4 4 4 5 9 11 10 11 9 9 10 12 14 12 10 9 7 5 3 2 1 2 3 4 4 4 3 3 2 3 6 6
23 23 25 24 21 21 21 21 23 23 21 19 19 19 18 17 17 16 15 14 13 11 11 11 10 10 10 9 9 9 7 5 6 7 8 8 6 6 6 6 6 5 6 7 8 8 7 5 5 5 5 4 5 5 4 5 7 10 12 12 11 8 7 9 11 12 11 10 8 6 4 2 1 1 1 2 3 4 4 3 3 2 1 5 7
22 23 25 23 22 22 22 22 22 23 23 20 20 19 17 17 17 16 14 14 13 12 11 11 10 9 10 9 9 8 8 7 7 9 10 9 7 7 7 7 6 7 7 7 8 8 7 6 5 5 5 4 5 6 5 5 8 9 9 12 12 8 7 8 9 8 8 9 7 4 3 2 1 1 1 2 3 4 4 3 3 3 1 3 6
22 23 23 22 23 23 22 23 23 23 23 21 20 19 18 17 17 15 13 14 13 11 11 10 9 8 9 10 9 9 9 8 9 10 11 10 8 7 8 8 8 7 7 7 8 7 6 6 5 5 5 4 5 6 5 4 7 9 8 9 10 8 8 9 10 8 7 7 6 4 2 2 1 2 2 2 3 3 3 3 3 3 2 2 4
24 22 22 22 23 24 23 23 23 22 21 20 20 20 20 18 16 13 13 13 11 9 9 9 9 9 8 9 9 9 9 9 10 10 11 9 7 7 7 8 8 7 7 8 7 6 6 6 6 6 5 4 4 5 5 3 4 8 9 9 7 7 8 9 9 8 8 7 5 3 2 3 3 2 2 2 3 3 3 2 2 2 2 4 5
25 23 22 22 23 26 27 25 24 21 20 18 19 20 20 19 16 13 13 12 10 8 8 8 8 8 7 7 8 9 8 9 10 10 9 7 6 7 6 7 8 7 8 8 6 5 6 6 6 6 5 5 5 5 5 3 3 6 8 8 7 6 6 6 5 5 6 5 3 3 4 4 4 3 2 0 3 4 3 2 2 2 3 3 4
24 24 23 22 24 27 28 26 23 20 20 18 18 18 18 18 17 15 14 12 10 9 8 7 7 7 7 6 7 8 8 8 9 8 7 5 5 7 6 6 7 6 6 6 6 5 6 6 6 5 5 6 5 4 4 3 3 4 5 6 7 6 4 3 5 6 4 3 2 3 4 5 4 3 2 1 3 4 4 3 3 3 3 3 4
23 26 25 24 25 27 27 24 22 20 20 18 16 16 16 17 16 15 14 11 11 9 9 8 7 6 6 6 8 8 8 7 7 6 4 4 5 7 6 6 6 6 5 5 6 6 5 6 5 5 5 5 4 3 3 3 3 4 4 5 6 5 2 2 5 5 5 5 4 4 5 5 4 4 2 2 3 5 5 4 4 4 3 3 4
22 26 26 26 26 26 25 22 22 21 20 18 17 16 15 15 15 15 13 11 11 9 8 8 6 6 5 5 7 7 7 7 6 4 3 4 4 6 5 5 6 5 4 5 6 5 5 5 5 5 5 5 4 4 5 4 4 3 3 4 5 3 2 4 4 3 5 6 5 5 6 6 5 5 3 3 3 4 4 4 5 5 4 4 4
22 26 27 27 27 25 24 23 22 20 19 18 17 16 15 14 14 15 13 13 12 10 9 8 6 6 5 5 5 5 4 4 4 3 3 4 4 5 5 4 5 4 4 5 5 6 5 5 5 5 5 5 4 5 5 5 5 4 2 4 5 5 4 5 4 3 6 7 6 7 6 6 5 5 4 3 4 3 4 5 5 5 4 4 4
25 27 27 27 28 27 25 24 23 22 21 19 17 17 16 16 17 17 16 14 13 12 10 7 5 5 6 6 5 5 4 4 4 4 3 3 4 4 4 3 4 4 5 5 5 6 6 6 5 4 4 5 6 6 4 4 5 5 5 5 4 5 4 4 4 3 4 5 6 7 7 7 6 5 4 4 5 4 5 5 4 4 3 4 5
27 26 25 27 28 27 26 26 27 25 22 20 19 19 18 18 19 17 15 13 13 12 9 6 5 5 6 7 6 6 5 5 5 5 5 4 3 3 3 3 3 3 4 5 5 5 5 5 4 4 5 5 6 6 5 4 5 6 7 6 4 4 4 4 4 3 3 3 4 5 7 7 6 5 5 6 7 6 6 5 4 4 4 4 4
27 24 22 24 24 27 29 28 27 24 21 20 19 19 20 19 19 17 15 14 13 12 10 8 7 5 5 6 6 6 5 5 5 4 5 5 4 3 3 3 3 4 4 5 6 5 5 5 5 5 5 5 6 6 6 6 7 8 9 7 6 5 4 3 3 2 3 3 3 4 6 7 6 6 6 7 8 8 7 6 5 5 4 3 2
25 22 20 19 22 30 32 27 24 24 22 21 20 19 19 18 18 17 15 15 15 12 12 11 8 6 6 5 5 6 5 4 4 4 4 5 5 5 5 4 3 4 4 5 5 4 4 4 5 5 4 5 5 6 6 7 8 9 10 10 9 9 7 5 4 3 3 3 3 5 6 6 6 7 7 7 8 8 8 7 6 5 4 3 3
23 21 19 19 24 31 32 27 24 26 26 24 22 20 18 17 18 17 15 16 16 13 12 11 9 8 7 6 7 9 8 6 4 4 4 5 5 5 5 5 5 5 4 3 4 3 3 4 4 4 5 5 6 6 6 7 8 9 9 9 10 13 13 12 9 6 5 4 4 5 6 6 6 7 8 7 7 8 8 7 6 6 6 6 7
21 20 20 23 26 28 29 29 27 29 30 27 24 22 20 19 18 17 15 17 16 12 11 11 10 10 9 9 10 10 9 7 4 2 2 4 5 5 5 4 5 6 5 5 4 3 3 4 4 4 6 7 7 7 7 6 7 8 8 8 10 11 13 15 13 10 8 6 6 6 6 6 6 7 7 6 6 6 6 7 7 6 7 8 9
19 19 22 25 26 26 28 29 30 32 31 27 25 24 23 22 21 19 17 17 15 11 10 11 10 9 8 11 11 11 10 9 7 3 2 4 5 6 6 3 4 5 5 5 6 5 5 4 4 5 7 7 6 6 7 7 6 6 6 7 7 8 13 16 14 12 10 8 9 8 7 8 6 6 6 6 5 5 5 6 6 6 7 8 8
19 19 22 24 25 25 26 30 34 34 30 27 27 26 25 25 23 21 20 18 15 11 11 12 10 8 8 12 12 12 12 11 8 5 4 7 7 7 8 6 4 5 4 5 6 6 5 5 5 5 6 6 5 5 6 7 7 7 6 6 6 8 15 16 12 13 11 9 10 9 8 9 8 7 6 4 4 5 6 5 5 5 5 5 5
20 20 21 22 23 24 27 32 36 35 32 32 30 27 26 25 23 22 20 17 15 13 12 11 11 9 9 11 12 12 11 8 6 4 5 10 10 8 9 8 6 5 4 5 6 6 6 6 6 5 5 5 5 5 6 7 7 7 7 7 8 11 14 13 13 16 14 10 10 11 11 10 10 9 7 6 5 5 7 6 5 4 4 4 4
21 21 23 22 22 24 29 33 35 35 34 32 30 27 24 25 24 22 18 16 15 15 13 12 11 9 8 9 10 10 9 7 7 7 7 9 12 10 9 8 6 4 3 4 5 4 4 6 6 5 6 6 6 5 6 8 7 7 8 8 10 11 11 10 11 13 15 14 12 11 12 12 11 10 9 9 8 7 9 8 7 6 6 5 4
21 22 23 22 21 24 28 32 33 33 31 30 28 25 23 24 25 22 19 16 14 13 13 13 11 10 10 11 11 11 11 9 8 8 7 7 9 12 11 9 6 3 1 2 5 5 4 5 6 6 6 7 7 6 7 9 9 8 8 9 10 10 9 10 10 10 12 15 15 13 14 14 14 13 11 11 11 10 9 8 7 7 7 6 6
21 21 22 22 22 24 27 30 31 31 30 28 26 24 23 25 25 22 19 16 13 12 12 12 11 12 13 13 13 12 12 13 10 8 7 6 7 12 13 10 8 6 2 2 5 6 5 5 6 6 6 7 7 6 6 8 9 9 9 8 8 10 10 12 13 12 12 15 17 17 17 17 17 16 13 12 12 10 7 6 6 6 5 6 7
24 22 23 24 24 25 28 30 31 30 30 28 25 23 24 24 21 18 17 16 13 12 11 12 13 15 14 13 12 9 10 13 13 10 9 7 7 11 14 11 9 7 4 3 5 6 6 6 6 6 6 7 9 9 10 11 12 12 12 10 8 8 10 14 14 13 16 19 22 22 19 18 19 18 16 14 14 12 10 8 6 6 7 7 8
Wind_Direction
152 153 150 146 144 140 138 137 137 139 141 142 143 143 143 141 136 135 130 123 115 109 107 103 100 99 99 101 107 115 120 122 122 120 118 115 111 111 110 106 104 110 115 114 110 106 103 94 89 106 116 117 115 107 101 102 100 99 96 93 91 89 86 83 77 69 64 59 51 51 61 65 63 64 68 66 75 94 104 106 101 94 88 88 94
152 154 151 147 145 140 138 137 138 139 142 143 143 144 144 142 138 138 133 125 117 112 110 106 104 103 100 99 102 107 112 117 117 116 114 112 109 109 109 105 103 108 117 111 106 106 103 95 89 101 115 113 100 95 95 99 100 98 95 91 89 86 83 79 75 68 61 57 50 43 50 63 66 63 66 68 77 97 106 108 105 97 91 91 95
150 153 149 146 145 140 139 136 138 140 142 143 144 146 145 143 141 140 135 127 119 115 115 110 108 106 104 102 100 101 104 109 112 113 112 111 109 108 110 111 112 114 120 112 108 110 104 96 93 92 99 99 93 92 94 94 95 95 91 87 83 79 75 71 66 63 56 51 49 42 37 45 61 62 65 72 83 102 108 111 110 99 97 101 98
151 152 147 144 144 139 137 136 138 140 142 144 146 148 147 145 143 143 138 129 121 118 119 115 113 111 110 107 104 102 101 104 105 107 109 111 110 110 113 116 122 124 124 119 116 115 107 101 97 89 90 94 95 95 94 93 93 93 90 86 81 78 73 68 61 58 52 45 43 40 30 27 50 62 62 71 83 100 103 110 114 103 108 112 102
153 151 146 143 141 138 136 136 138 140 142 145 148 149 148 147 145 145 140 130 121 121 123 120 118 116 115 114 110 107 104 104 103 103 105 109 112 114 116 115 121 130 132 127 122 121 113 106 101 94 93 94 95 95 95 95 95 93 91 87 82 79 75 71 67 62 53 44 39 34 23 15 38 61 60 66 79 91 96 109 117 108 113 114 106
155 150 145 142 138 137 136 137 138 140 143 146 150 150 149 148 147 146 140 131 124 124 125 121 122 121 120 119 115 112 109 107 106 105 105 107 112 114 112 107 110 135 140 134 129 128 121 113 108 101 98 95 94 95 97 99 98 95 91 88 85 82 79 76 72 71 63 53 42 28 18 10 28 60 59 60 69 82 89 97 104 100 108 115 116
153 150 144 141 137 136 136 137 138 140 144 147 150 150 150 150 148 146 142 133 127 129 126 122 125 127 126 124 121 118 116 114 113 112 113 114 116 116 112 107 107 126 139 140 140 136 131 123 116 110 103 97 95 95 98 101 102 98 94 91 88 85 81 78 74 78 80 69 48 27 16 10 26 60 62 59 63 73 79 81 85 91 105 119 123
150 149 143 140 137 135 136 136 137 141 143 147 150 151 152 151 148 146 143 134 130 133 128 126 130 131 131 130 127 123 122 121 122 123 126 127 128 128 124 119 118 127 137 145 148 145 141 132 125 120 110 102 99 97 99 102 104 102 98 94 90 87 83 80 77 80 85 73 43 23 13 11 24 55 65 61 62 71 76 78 82 87 97 105 109
149 147 142 140 137 135 135 135 136 139 143 147 150 151 152 150 148 146 142 134 134 138 134 132 133 132 133 132 131 129 128 128 129 132 135 136 136 138 137 132 131 138 142 148 152 151 149 139 133 128 119 112 105 101 101 103 105 103 100 98 94 91 86 84 83 79 75 57 26 6 1 6 18 48 64 63 62 68 72 75 78 82 89 89 93
147 144 142 140 135 134 132 132 134 138 143 146 150 150 151 149 147 145 139 136 140 144 141 138 135 132 133 132 132 130 130 131 133 135 137 135 133 134 137 139 142 145 145 150 153 156 155 148 142 137 134 123 114 108 105 106 106 104 101 100 97 93 89 89 91 86 75 45 14 6 1 5 20 48 63 66 64 66 69 71 74 78 84 82 84
144 144 141 138 132 130 130 130 133 137 142 145 148 149 150 148 145 144 141 143 146 149 146 141 139 135 132 129 127 124 123 126 129 135 137 131 125 125 126 132 141 150 155 154 154 158 158 157 151 144 147 134 123 118 110 109 107 106 103 101 99 95 91 94 99 94 81 39 15 19 4 8 31 53 64 69 68 66 68 71 72 75 77 77 78
142 143 137 134 129 128 129 130 134 137 141 144 147 148 148 146 145 146 145 149 151 152 148 143 141 136 128 123 120 118 117 118 118 126 136 130 118 117 115 114 120 138 158 160 160 163 161 160 158 151 154 145 133 125 116 113 109 109 108 105 102 98 93 96 106 102 90 34 13 13 6 19 44 56 67 70 70 70 68 70 72 75 75 74 76
141 141 135 133 129 130 131 132 136 138 141 143 146 147 147 147 149 151 151 153 154 153 147 143 140 133 126 124 123 122 122 118 114 116 125 124 112 110 108 102 97 106 130 149 155 156 154 158 163 162 163 158 143 129 120 115 113 115 113 109 105 102 98 98 111 107 92 4 12 23 18 28 48 57 68 73 74 74 72 72 72 74 73 73 75
141 141 136 134 131 133 134 136 138 139 142 143 146 147 148 151 154 156 156 157 154 152 147 144 141 134 131 131 130 129 128 123 119 117 115 113 107 105 104 101 95 91 96 118 135 136 140 150 164 169 171 168 154 134 124 118 117 118 116 113 109 107 104 106 121 114 88 353 19 28 21 29 53 60 66 75 75 75 75 74 74 75 75 74 74
141 142 139 136 134 136 137 140 140 141 144 144 146 147 150 154 157 159 159 160 156 154 150 148 145 141 139 138 135 130 131 131 128 124 113 106 103 101 100 98 93 88 81 79 91 113 124 123 145 170 179 180 174 156 136 125 120 120 118 115 111 108 107 112 122 107 67 354 9 2 14 35 53 58 63 73 75 76 77 77 77 76 77 77 76
142 143 141 138 137 140 141 142 143 145 146 145 147 148 154 158 160 161 162 162 158 156 153 151 148 146 146 141 137 133 135 138 135 128 117 110 106 103 100 95 91 85 80 77 75 86 84 75 88 151 187 196 196 187 159 135 126 125 121 115 114 113 109 114 133 129 114 351 24 29 29 41 48 50 57 68 75 76 77 79 79 77 77 79 79
144 146 144 142 142 143 145 146 147 148 148 148 149 153 159 163 163 163 165 162 159 158 154 153 150 150 151 145 140 139 141 142 142 135 122 120 118 113 106 96 90 86 85 87 85 86 79 74 78 99 175 205 209 207 190 152 134 131 124 123 123 120 115 122 155 143 127 344 36 40 32 41 51 48 46 59 72 75 77 78 80 81 80 79 80
148 150 147 145 145 148 150 150 152 153 154 152 154 159 162 165 167 166 165 162 161 159 154 154 153 153 154 148 145 145 147 150 149 140 127 124 123 116 111 100 91 89 86 86 88 91 94 99 103 102 109 196 212 211 210 178 142 129 125 133 133 127 124 132 156 112 45 311 341 358 19 37 49 45 40 53 61 71 77 79 81 82 83 82 81
150 152 149 149 150 152 154 155 158 159 158 156 157 161 164 168 168 167 165 162 161 157 156 155 153 156 156 154 151 149 153 157 153 143 134 129 122 118 115 105 96 90 82 80 82 83 91 105 121 126 119 121 171 195 204 187 150 128 129 140 140 134 129 138 174 165 245 276 305 338 12 30 41 39 43 58 54 61 71 77 82 81 83 84 84
152 153 151 155 157 156 157 160 162 161 160 159 160 162 165 168 168 169 164 161 160 158 161 157 155 159 159 158 154 153 159 161 155 146 139 135 128 125 121 116 111 92 75 73 76 78 82 92 112 131 139 133 127 149 173 166 146 134 138 144 140 136 137 158 193 192 236 271 297 348 10 20 35 35 35 53 51 51 62 72 79 82 82 83 84
153 154 157 162 162 159 161 165 166 163 162 161 163 164 166 167 169 170 163 161 162 164 166 161 159 161 163 164 158 158 162 163 159 150 142 141 139 139 141 144 138 88 63 74 82 79 79 85 94 117 141 148 137 137 148 146 134 133 144 148 142 135 138 164 193 212 247 270 299 340 357 10 32 36 32 37 42 47 59 67 73 82 82 82 84
155 156 165 167 163 162 166 170 168 166 165 165 166 166 168 168 170 168 163 165 167 168 168 165 165 164 167 165 160 159 161 162 158 154 151 150 158 173 179 182 174 79 25 93 85 81 84 88 89 109 132 134 120 115 119 120 116 128 149 152 150 139 125 141 183 235 259 275 308 333 353 14 33 37 35 32 27 31 54 76 69 79 82 83 87
155 159 168 167 164 166 171 174 170 169 168 168 168 168 171 171 171 167 165 168 169 170 169 169 169 166 167 163 160 159 161 162 161 167 165 162 180 206 210 222 219 197 194 165 95 89 94 92 94 103 117 120 112 106 105 103 96 94 150 164 168 164 138 149 206 251 268 279 301 317 342 6 25 24 33 35 20 9 5 140 98 81 87 86 88
158 162 166 166 168 169 173 175 173 173 172 171 171 172 174 173 170 169 171 170 170 171 171 173 168 164 165 163 164 165 168 169 173 178 170 173 192 208 219 241 240 204 189 187 161 124 119 115 117 119 123 133 134 129 123 115 103 85 96 170 177 186 172 196 235 250 264 276 291 299 322 346 4 8 22 27 15 12 15 137 158 112 105 94 88
162 164 166 165 167 171 173 175 178 177 175 174 172 175 178 174 169 170 174 172 171 170 169 172 164 163 170 168 173 178 179 181 186 184 173 191 203 205 218 238 247 240 215 194 192 195 163 138 137 137 136 143 150 152 143 129 118 104 107 145 160 211 209 222 239 241 255 269 277 281 295 317 338 350 11 16 8 15 25 41 191 189 170 139 106
166 167 168 166 165 171 172 174 181 180 178 175 170 174 177 172 168 170 175 174 172 168 167 170 165 169 176 176 185 192 190 189 195 193 186 213 220 220 232 234 237 255 250 219 206 208 198 168 152 150 154 157 163 164 155 143 137 133 135 153 173 244 240 229 231 236 248 261 265 267 275 295 325 340 1 16 6 7 23 22 253 210 205 198 183
168 171 172 170 167 169 172 176 180 179 179 175 169 169 170 169 167 169 173 172 170 168 167 171 172 176 183 188 197 205 202 197 199 206 219 231 232 243 246 240 247 269 264 255 237 207 201 200 177 166 174 181 188 178 166 170 174 167 166 184 193 214 243 236 228 233 240 250 257 259 267 290 316 329 343 351 360 7 11 14 6 234 218 210 207
171 173 173 172 167 167 172 175 176 178 179 174 168 165 166 167 164 167 169 167 170 171 172 178 179 179 191 202 211 216 208 199 196 211 235 237 242 257 245 245 272 283 269 262 257 228 212 218 212 203 196 199 212 201 191 190 178 186 193 212 210 202 223 232 229 232 234 240 247 250 255 271 299 328 346 342 348 3 10 12 8 291 229 217 212
173 173 172 171 165 166 169 170 174 179 180 174 167 162 165 166 163 165 166 167 176 178 179 185 182 183 200 215 223 220 208 204 215 231 247 245 250 259 245 250 275 286 275 259 252 242 236 233 225 224 220 219 232 223 211 204 196 204 205 214 223 215 209 219 232 236 235 239 239 236 236 234 272 328 357 346 342 352 15 14 4 342 228 218 216
177 176 172 170 165 167 169 169 174 175 176 172 165 160 162 167 164 166 168 171 179 181 182 187 187 191 208 227 234 224 218 232 247 249 249 251 257 263 254 249 265 280 270 253 246 246 248 247 238 238 231 228 240 231 230 231 207 203 209 212 215 223 226 223 235 238 232 233 227 217 209 197 239 300 347 355 347 351 15 15 4 8 240 210 213
179 178 175 170 164 170 173 172 173 171 172 169 163 161 164 170 166 166 171 171 176 182 183 186 189 196 209 226 239 236 236 247 252 251 249 252 258 266 259 244 250 263 262 253 247 248 252 258 257 252 240 232 240 234 241 237 202 193 210 215 209 225 245 227 235 247 238 226 208 194 196 195 236 299 347 21 22 11 19 15 18 24 5 199 203
177 178 174 170 166 170 175 174 172 171 172 169 163 161 166 170 168 169 171 171 176 180 179 182 191 203 211 220 232 240 244 250 249 248 253 255 252 261 259 248 250 255 260 256 251 252 255 260 258 259 253 238 242 239 246 244 206 198 211 224 227 241 243 233 244 249 244 232 199 179 209 236 272 313 352 32 45 42 43 27 28 37 42 149 174
175 176 171 172 167 167 172 172 170 171 172 170 164 161 163 165 166 170 170 171 175 177 178 181 192 205 213 216 226 237 244 251 249 250 260 263 259 261 255 249 252 254 257 254 254 254 252 256 250 253 249 238 253 247 246 263 222 206 212 228 244 248 237 241 252 237 233 240 214 193 235 252 260 289 329 40 63 75 79 62 44 49 90 134 154
171 173 172 173 166 163 168 169 168 170 172 171 168 162 158 158 161 164 165 168 172 174 180 181 188 200 210 214 221 235 241 241 240 245 253 255 264 266 254 247 245 246 254 255 256 248 243 250 245 244 243 234 244 239 241 265 234 208 215 234 245 240 238 248 243 210 217 230 213 200 222 237 238 253 273 13 74 89 99 97 79 72 102 120 145
170 169 172 171 165 163 166 168 167 169 171 172 169 162 154 154 159 159 161 166 170 171 175 175 177 186 194 196 204 219 223 221 224 228 228 218 240 251 247 247 238 236 253 259 263 260 250 251 244 237 239 236 233 233 245 251 236 222 223 239 236 223 237 251 205 185 190 199 199 199 207 221 226 231 238 91 92 103 111 114 111 106 116 110 125
174 168 169 168 164 162 164 165 165 166 168 166 163 159 154 155 156 157 163 165 164 165 166 162 158 165 170 169 178 188 185 194 205 207 211 206 221 233 235 240 237 238 250 252 261 267 261 254 246 235 231 232 230 232 236 217 221 241 234 221 213 216 238 171 170 187 193 189 190 189 199 212 214 206 177 134 119 113 110 115 119 114 123 129 132
179 169 165 162 160 160 161 162 164 163 161 159 158 157 155 155 152 153 158 153 149 154 158 153 148 155 156 153 161 162 163 175 180 180 210 216 220 233 232 229 236 242 245 245 252 257 253 246 236 228 225 224 220 222 224 208 204 229 243 211 185 182 209 166 150 179 176 178 186 182 195 207 202 194 181 174 148 121 117 123 122 114 117 125 125
173 168 166 162 161 161 159 159 163 160 156 158 158 158 156 152 148 145 140 135 134 135 137 135 134 149 152 151 152 136 136 151 144 147 192 200 202 222 225 222 235 239 239 246 249 248 242 234 224 217 218 216 211 215 220 207 194 190 189 194 169 137 154 168 160 157 153 165 178 174 186 193 188 192 194 194 173 142 141 136 125 116 114 116 107
168 167 165 162 161 159 156 157 161 159 157 160 157 156 154 147 146 140 131 127 124 122 123 127 131 148 151 149 145 127 126 133 126 133 157 163 172 202 220 223 234 234 234 237 238 240 233 228 219 205 212 215 214 215 213 205 192 178 167 161 152 143 146 162 173 180 165 170 175 179 193 191 183 191 199 197 187 168 160 151 140 146 140 122 112
172 171 160 155 155 153 154 157 158 159 160 160 156 156 153 149 149 142 132 125 121 122 125 136 139 144 151 153 151 137 135 144 139 141 145 142 152 182 202 206 216 218 224 225 220 222 221 225 220 207 215 219 221 212 192 187 175 163 162 145 120 125 138 157 178 210 214 206 204 207 208 196 187 194 197 195 192 184 180 180 185 192 167 126 116
176 176 156 147 147 146 151 156 159 161 160 159 157 158 155 152 148 140 136 135 134 139 144 152 150 142 143 146 145 135 136 146 141 135 136 138 139 137 148 172 194 192 200 216 215 214 209 214 220 217 216 212 217 206 181 180 177 166 159 146 125 111 118 143 145 165 194 209 217 210 206 197 200 210 198 186 189 192 197 201 213 214 175 130 128
177 172 155 150 144 143 149 157 162 158 156 159 160 160 156 152 148 142 143 146 149 154 154 158 161 153 148 135 123 120 122 128 128 129 123 119 120 120 124 136 161 175 187 207 209 213 206 200 210 215 208 200 201 194 183 181 181 176 164 153 135 111 95 98 112 124 145 169 186 191 200 196 204 213 196 182 189 197 204 209 210 207 189 172 190
175 166 164 165 148 143 147 154 161 156 156 162 159 154 151 150 150 146 148 151 157 167 168 173 180 178 175 154 123 112 106 102 111 129 122 118 124 122 124 131 142 152 162 185 201 221 222 202 200 201 193 190 188 181 180 180 172 165 162 155 140 123 103 98 108 120 127 139 151 167 192 191 185 193 193 190 194 195 199 205 201 202 207 201 196
173 165 170 163 146 144 146 152 160 158 161 166 155 149 150 150 150 149 151 155 163 173 169 169 173 172 165 148 133 119 108 102 109 128 132 139 133 120 121 134 139 142 149 158 167 177 184 188 191 194 191 187 185 177 169 172 166 162 162 150 142 134 117 114 117 119 123 129 134 153 177 176 163 171 183 186 186 187 190 199 202 209 214 204 200
171 168 170 161 150 150 149 153 160 160 164 164 153 154 158 155 154 158 161 162 168 171 154 143 149 155 146 144 143 136 134 137 148 184 201 153 136 119 112 115 128 128 143 151 146 145 142 158 172 183 190 182 179 175 161 162 166 166 164 148 146 137 128 132 127 118 126 133 135 149 160 159 157 157 167 172 169 171 177 190 198 205 212 209 209
170 171 171 166 160 156 152 155 159 160 163 160 158 163 164 159 160 166 170 171 170 161 145 140 151 158 140 140 139 140 156 166 175 202 174 137 134 121 98 80 93 109 121 130 127 135 140 148 155 161 179 173 168 172 160 168 179 176 164 144 141 136 137 144 135 119 124 134 140 144 144 146 148 145 154 158 157 166 169 177 184 189 197 199 202
166 168 173 173 168 161 158 158 159 161 162 162 166 170 167 163 166 169 172 174 168 152 144 147 157 161 146 146 149 150 162 163 157 167 141 133 134 123 102 88 87 92 109 132 133 143 152 155 153 142 155 159 159 168 153 156 171 174 165 141 130 133 142 150 142 129 127 132 145 143 135 135 134 135 139 135 136 152 154 155 162 166 162 157 161
163 167 175 177 173 167 163 162 161 161 162 164 170 173 171 168 169 171 167 167 164 154 153 155 161 172 158 147 148 143 138 117 105 108 112 131 136 129 116 109 103 92 106 154 168 172 158 153 150 138 142 147 150 161 146 135 139 148 156 152 145 143 142 138 139 140 134 133 142 139 130 129 126 125 124 120 122 132 138 137 135 133 131 135 138
170 173 175 175 173 171 167 166 164 163 164 166 169 173 174 169 166 165 158 156 161 161 164 168 173 175 151 135 136 133 130 123 112 107 102 115 135 141 136 126 135 147 113 161 175 176 158 137 133 130 136 137 142 153 141 130 131 132 138 149 156 156 147 136 139 147 136 133 140 140 132 127 118 110 107 109 115 124 132 131 124 122 124 124 121
179 178 177 174 174 176 174 171 169 167 168 168 167 170 172 168 163 159 153 155 166 172 177 180 171 158 145 145 155 152 147 143 134 131 130 119 130 151 151 134 139 162 170 143 148 146 139 126 121 120 121 120 122 126 122 119 120 119 118 127 145 153 152 150 149 145 135 134 137 137 133 126 118 111 104 100 103 108 113 120 124 122 121 116 111
179 182 181 176 176 180 178 177 176 173 172 170 168 169 169 167 168 165 156 157 171 181 184 180 165 157 155 162 174 170 159 155 149 143 142 139 137 150 155 144 138 155 167 137 129 130 135 134 125 121 121 117 112 108 103 101 102 103 101 101 118 138 148 150 150 144 138 135 132 130 129 123 116 111 104 95 92 94 92 92 103 112 112 110 104
Height
1497 1498 1501 1503 1505 1506 1508 1509 1511 1513 1514 1516 1517 1520 1521 1523 1524 1525 1526 1527 1528 1529 1529 1530 1530 1531 1532 1532 1533 1534 1535 1535 1536 1537 1538 1538 1539 1540 1540 1541 1542 1542 1543 1543 1544 1544 1545 1545 1545 1545 1545 1546 1546 1546 1547 1547 1547 1547 1548 1548 1548 1548 1548 1547 1547 1547 1546 1546 1546 1546 1546 1545 1544 1544 1543 1543 1543 1543 1543 1544 1544 1544 1544 1544 1545
1496 1499 1500 1503 1506 1507 1509 1510 1512 1513 1515 1517 1518 1521 1522 1524 1525 1526 1527 1528 1529 1530 1530 1531 1531 1532 1533 1533 1534 1535 1536 1536 1537 1538 1538 1539 1540 1541 1541 1542 1543 1543 1544 1544 1545 1545 1546 1546 1546 1546 1546 1547 1547 1548 1548 1548 1548 1548 1549 1549 1549 1549 1549 1548 1548 1547 1547 1547 1547 1547 1547 1546 1546 1545 1544 1544 1544 1544 1545 1545 1545 1545 1545 1546 1546
1496 1499 1500 1503 1506 1507 1510 1511 1513 1514 1516 1517 1519 1521 1523 1524 1525 1527 1528 1529 1530 1531 1531 1532 1532 1533 1534 1534 1535 1536 1537 1537 1538 1539 1539 1540 1541 1541 1542 1543 1543 1544 1544 1545 1545 1546 1547 1547 1548 1548 1548 1548 1549 1549 1549 1549 1549 1549 1550 1550 1550 1550 1550 1550 1549 1548 1548 1548 1549 1549 1549 1548 1547 1547 1546 1545 1545 1546 1546 1546 1547 1546 1546 1547 1547
1498 1499 1501 1503 1506 1508 1510 1512 1513 1514 1516 1518 1520 1522 1523 1525 1526 1528 1528 1530 1530 1531 1532 1532 1533 1534 1535 1535 1536 1536 1537 1538 1539 1539 1540 1541 1541 1542 1543 1543 1544 1544 1545 1545 1546 1546 1547 1548 1548 1549 1549 1550 1550 1550 1550 1550 1551 1551 1551 1551 1551 1551 1551 1551 1550 1549 1549 1549 1550 1550 1550 1550 1549 1548 1547 1547 1547 1547 1547 1547 1548 1547 1547 1548 1548
1498 1500 1501 1503 1506 1509 1510 1512 1514 1515 1517 1519 1521 1522 1524 1525 1527 1528 1529 1531 1531 1532 1533 1533 1534 1534 1535 1536 1536 1537 1538 1538 1539 1540 1541 1542 1542 1543 1544 1544 1544 1545 1545 1546 1547 1547 1548 1548 1549 1550 1551 1551 1551 1551 1551 1552 1552 1552 1552 1553 1553 1553 1552 1552 1552 1551 1551 1550 1550 1551 1551 1551 1551 1550 1549 1549 1548 1548 1548 1548 1548 1548 1548 1549 1549
1498 1500 1502 1503 1506 1509 1511 1513 1514 1516 1517 1519 1521 1523 1525 1526 1528 1529 1530 1531 1532 1533 1533 1534 1535 1535 1536 1536 1537 1537 1538 1539 1540 1541 1542 1542 1543 1544 1544 1545 1545 1545 1546 1547 1547 1548 1549 1549 1550 1551 1552 1552 1552 1552 1553 1553 1553 1554 1554 1554 1554 1554 1554 1554 1554 1553 1553 1553 1552 1552 1553 1553 1552 1552 1551 1550 1550 1550 1549 1549 1549 1549 1549 1550 1550
1498 1501 1502 1504 1506 1509 1511 1513 1515 1516 1518 1520 1522 1524 1525 1527 1528 1530 1531 1532 1533 1534 1534 1535 1535 1536 1536 1537 1538 1538 1539 1540 1541 1541 1542 1543 1543 1544 1545 1545 1546 1546 1546 1547 1548 1549 1549 1550 1551 1551 1552 1553 1553 1554 1554 1554 1555 1555 1555 1555 1556 1556 1556 1556 1556 1555 1555 1555 1554 1554 1554 1554 1554 1553 1552 1552 1551 1551 1550 1551 1550 1550 1550 1550 1550
1500 1502 1503 1505 1507 1509 1512 1513 1515 1517 1519 1521 1522 1524 1525 1527 1529 1530 1532 1533 1534 1535 1535 1536 1536 1537 1537 1538 1538 1539 1540 1540 1541 1542 1543 1543 1544 1544 1545 1546 1546 1546 1547 1547 1548 1549 1550 1550 1551 1552 1553 1554 1554 1555 1555 1555 1556 1556 1556 1557 1557 1557 1558 1558 1557 1557 1557 1556 1556 1556 1556 1556 1556 1554 1554 1553 1553 1552 1552 1552 1551 1551 1550 1550 1551
1501 1503 1504 1506 1507 1510 1512 1514 1516 1518 1520 1521 1523 1524 1526 1527 1529 1531 1532 1534 1535 1535 1536 1536 1537 1537 1538 1539 1539 1540 1540 1541 1541 1542 1543 1543 1544 1545 1546 1546 1547 1547 1547 1548 1548 1549 1550 1551 1552 1553 1554 1554 1555 1555 1556 1557 1557 1558 1558 1558 1558 1559 1559 1559 1558 1558 1557 1557 1557 1558 1558 1558 1557 1556 1555 1554 1554 1554 1553 1553 1552 1552 1552 1552 1551
1501 1503 1505 1506 1508 1511 1513 1515 1517 1519 1521 1522 1523 1525 1526 1528 1530 1532 1533 1534 1535 1536 1536 1537 1537 1538 1539 1539 1540 1541 1541 1541 1542 1543 1544 1544 1545 1545 1546 1547 1547 1548 1548 1549 1549 1550 1550 1551 1552 1553 1554 1555 1556 1556 1557 1558 1558 1559 1559 1559 1559 1560 1560 1560 1559 1559 1558 1559 1559 1560 1560 1559 1558 1558 1557 1556 1555 1555 1555 1554 1553 1553 1553 1553 1552
1501 1504 1506 1508 1510 1512 1514 1516 1518 1520 1521 1523 1524 1526 1527 1529 1531 1532 1534 1535 1536 1536 1536 1537 1538 1538 1539 1540 1541 1542 1542 1542 1543 1544 1544 1545 1545 1546 1546 1547 1548 1548 1549 1549 1549 1550 1551 1552 1553 1553 1554 1555 1556 1557 1558 1558 1559 1560 1560 1560 1560 1561 1562 1561 1561 1560 1560 1561 1561 1561 1561 1560 1560 1559 1558 1557 1557 1557 1556 1555 1555 1555 1554 1554 1553
1502 1504 1507 1509 1511 1513 1515 1517 1519 1520 1522 1523 1525 1527 1528 1530 1532 1533 1534 1535 1536 1536 1537 1538 1538 1539 1539 1540 1541 1542 1543 1544 1544 1545 1546 1546 1546 1546 1547 1548 1549 1549 1550 1550 1550 1550 1551 1552 1553 1554 1555 1556 1557 1558 1558 1559 1560 1560 1561 1561 1561 1562 1563 1562 1561 1561 1561 1562 1563 1563 1563 1562 1561 1561 1559 1559 1558 1558 1557 1557 1557 1556 1556 1556 1555
1503 1506 1508 1510 1512 1515 1516 1518 1519 1520 1522 1524 1526 1527 1529 1531 1532 1533 1534 1535 1536 1537 1537 1538 1539 1539 1540 1541 1542 1543 1544 1545 1545 1546 1547 1547 1547 1547 1548 1548 1549 1550 1551 1551 1551 1551 1552 1553 1554 1554 1555 1556 1557 1558 1559 1560 1561 1561 1561 1562 1562 1563 1563 1563 1562 1561 1562 1564 1564 1564 1564 1563 1562 1562 1561 1560 1560 1559 1559 1559 1558 1558 1557 1557 1557
1504 1507 1509 1511 1513 1515 1517 1518 1519 1521 1523 1524 1526 1528 1529 1531 1532 1533 1534 1535 1536 1537 1538 1539 1539 1540 1540 1541 1541 1543 1544 1545 1546 1547 1548 1548 1548 1548 1548 1549 1550 1551 1551 1552 1552 1552 1553 1554 1554 1555 1556 1557 1558 1559 1560 1561 1561 1562 1562 1562 1563 1564 1564 1564 1562 1562 1563 1565 1565 1565 1565 1564 1564 1563 1562 1562 1561 1561 1560 1560 1560 1559 1559 1559 1559
1505 1507 1510 1512 1513 1515 1517 1519 1520 1521 1523 1524 1526 1528 1529 1531 1532 1533 1534 1535 1536 1538 1538 1539 1540 1540 1541 1541 1542 1543 1544 1545 1546 1547 1548 1548 1549 1549 1549 1550 1550 1551 1552 1553 1553 1553 1554 1554 1555 1555 1556 1557 1558 1559 1560 1561 1562 1562 1563 1563 1564 1564 1565 1564 1563 1563 1564 1565 1565 1566 1565 1565 1565 1564 1564 1563 1563 1562 1562 1561 1561 1561 1561 1560 1560
1508 1509 1510 1512 1513 1515 1517 1519 1520 1522 1523 1525 1527 1528 1529 1530 1532 1533 1534 1536 1537 1538 1539 1540 1540 1541 1541 1542 1543 1544 1545 1546 1547 1548 1548 1549 1549 1550 1550 1550 1551 1552 1553 1554 1554 1554 1554 1555 1556 1556 1557 1558 1558 1560 1561 1562 1563 1563 1564 1564 1565 1565 1566 1565 1563 1563 1565 1566 1566 1566 1566 1566 1566 1565 1565 1564 1564 1563 1563 1563 1563 1562 1562 1562 1562
1510 1510 1510 1511 1513 1514 1516 1518 1520 1522 1524 1525 1527 1528 1529 1531 1532 1533 1534 1536 1538 1539 1540 1540 1541 1542 1542 1543 1543 1544 1545 1547 1548 1548 1549 1549 1549 1550 1550 1551 1552 1552 1553 1554 1555 1555 1555 1556 1556 1556 1557 1558 1559 1560 1561 1562 1563 1564 1564 1565 1565 1566 1566 1565 1564 1564 1565 1566 1566 1566 1567 1567 1566 1567 1566 1566 1565 1565 1564 1564 1564 1564 1563 1563 1563
1510 1510 1510 1511 1513 1514 1516 1518 1520 1522 1523 1525 1527 1529 1530 1532 1533 1534 1535 1537 1538 1539 1540 1541 1542 1543 1543 1544 1544 1545 1546 1547 1548 1549 1549 1549 1550 1550 1551 1551 1552 1553 1554 1555 1555 1555 1555 1556 1556 1557 1557 1558 1559 1560 1561 1562 1563 1564 1565 1565 1566 1566 1567 1566 1565 1565 1566 1566 1567 1567 1567 1567 1567 1567 1567 1567 1566 1566 1565 1565 1565 1565 1565 1565 1565
1510 1511 1511 1511 1513 1514 1516 1517 1519 1521 1523 1525 1527 1529 1531 1532 1534 1535 1536 1537 1538 1540 1541 1542 1543 1544 1544 1545 1545 1545 1546 1547 1548 1549 1549 1549 1550 1550 1551 1552 1552 1553 1554 1555 1556 1556 1556 1556 1556 1557 1557 1558 1559 1560 1561 1562 1563 1564 1565 1566 1566 1567 1567 1566 1565 1566 1566 1567 1567 1567 1568 1568 1568 1568 1568 1568 1568 1567 1567 1567 1566 1566 1566 1566 1566
1510 1512 1512 1513 1513 1515 1516 1517 1519 1521 1523 1525 1527 1529 1530 1532 1534 1535 1536 1538 1539 1540 1541 1543 1543 1544 1545 1545 1545 1545 1546 1548 1548 1548 1549 1549 1550 1550 1551 1552 1553 1554 1555 1556 1556 1556 1556 1556 1556 1557 1558 1558 1559 1559 1560 1562 1563 1564 1565 1566 1567 1567 1567 1566 1566 1566 1567 1567 1568 1568 1568 1568 1568 1568 1569 1569 1569 1568 1568 1568 1568 1567 1567 1567 1567
1510 1512 1513 1513 1514 1516 1517 1518 1520 1522 1524 1525 1527 1528 1530 1532 1534 1535 1537 1538 1539 1540 1541 1542 1543 1544 1545 1545 1545 1546 1547 1548 1548 1548 1549 1549 1550 1550 1551 1552 1553 1554 1555 1556 1556 1557 1557 1557 1557 1558 1558 1558 1559 1559 1560 1561 1563 1564 1565 1566 1567 1567 1567 1566 1566 1567 1567 1568 1568 1568 1569 1569 1569 1569 1569 1569 1569 1569 1569 1569 1569 1568 1568 1568 1568
1509 1512 1513 1514 1516 1517 1518 1519 1521 1523 1525 1526 1528 1529 1530 1532 1534 1536 1537 1538 1539 1540 1541 1542 1543 1544 1544 1545 1545 1546 1547 1548 1548 1549 1549 1549 1550 1550 1551 1552 1553 1554 1555 1556 1556 1557 1557 1558 1558 1558 1558 1559 1559 1560 1561 1562 1563 1564 1566 1567 1567 1567 1567 1567 1567 1568 1568 1568 1569 1569 1569 1569 1569 1569 1569 1570 1570 1570 1570 1570 1570 1569 1569 1569 1569
1509 1511 1513 1515 1517 1518 1518 1519 1521 1524 1526 1528 1529 1530 1531 1532 1535 1536 1537 1538 1539 1540 1541 1542 1543 1544 1545 1545 1546 1547 1548 1548 1549 1549 1548 1549 1549 1550 1551 1552 1553 1554 1555 1555 1556 1557 1557 1558 1558 1558 1559 1559 1559 1560 1561 1562 1563 1564 1566 1567 1567 1568 1568 1567 1567 1568 1568 1568 1569 1569 1569 1569 1569 1569 1569 1569 1569 1570 1570 1570 1570 1570 1570 1570 1570
1509 1511 1512 1515 1517 1517 1518 1520 1522 1524 1526 1528 1529 1530 1531 1533 1535 1537 1537 1538 1538 1539 1541 1542 1543 1544 1545 1545 1546 1547 1548 1549 1549 1548 1548 1549 1550 1551 1552 1552 1553 1554 1555 1556 1556 1557 1557 1558 1558 1559 1559 1559 1559 1560 1560 1561 1562 1563 1565 1567 1567 1568 1568 1567 1567 1568 1568 1568 1569 1569 1569 1569 1569 1569 1569 1569 1569 1570 1570 1570 1570 1570 1570 1571 1571
1509 1511 1513 1515 1517 1518 1518 1520 1522 1524 1526 1528 1530 1530 1531 1533 1535 1536 1537 1538 1539 1540 1541 1542 1543 1544 1545 1546 1546 1547 1548 1549 1549 1548 1548 1549 1550 1551 1552 1552 1553 1554 1555 1556 1556 1557 1558 1558 1559 1559 1559 1559 1560 1560 1560 1561 1562 1563 1564 1566 1567 1567 1567 1566 1567 1568 1567 1567 1568 1568 1569 1569 1569 1569 1569 1569 1569 1569 1570 1570 1570 1570 1570 1571 1571
1510 1511 1513 1515 1517 1518 1519 1520 1521 1524 1526 1528 1530 1530 1531 1533 1535 1536 1537 1538 1539 1540 1541 1542 1543 1544 1545 1546 1546 1547 1547 1548 1548 1549 1549 1550 1551 1551 1552 1553 1554 1554 1555 1555 1556 1557 1558 1559 1559 1559 1559 1560 1560 1560 1561 1561 1562 1563 1564 1564 1564 1565 1566 1566 1566 1567 1566 1567 1567 1568 1568 1568 1568 1568 1568 1568 1568 1569 1569 1570 1570 1570 1570 1570 1571
1511 1512 1513 1515 1516 1518 1519 1520 1521 1523 1525 1528 1530 1531 1532 1534 1535 1536 1537 1539 1540 1540 1541 1542 1543 1544 1545 1545 1546 1546 1547 1548 1549 1549 1550 1550 1551 1551 1552 1553 1554 1554 1554 1555 1556 1557 1558 1558 1559 1559 1559 1560 1560 1561 1561 1562 1562 1563 1564 1563 1561 1563 1564 1565 1566 1566 1566 1566 1566 1567 1567 1568 1568 1568 1568 1568 1568 1569 1569 1569 1569 1570 1570 1570 1570
1511 1512 1513 1514 1515 1517 1518 1520 1521 1522 1524 1527 1530 1531 1532 1534 1535 1536 1538 1539 1540 1541 1542 1543 1544 1545 1545 1545 1546 1546 1547 1548 1548 1549 1550 1550 1551 1551 1552 1553 1553 1554 1554 1555 1556 1556 1557 1557 1558 1559 1559 1560 1561 1562 1562 1562 1563 1563 1563 1562 1561 1562 1563 1564 1565 1565 1565 1565 1565 1566 1566 1567 1567 1568 1568 1568 1568 1569 1569 1569 1569 1569 1569 1570 1570
1510 1511 1512 1513 1515 1516 1518 1520 1521 1522 1524 1527 1529 1531 1532 1533 1535 1537 1538 1539 1540 1541 1542 1543 1544 1545 1545 1546 1546 1547 1547 1548 1548 1549 1550 1550 1550 1551 1552 1552 1553 1554 1555 1555 1555 1556 1556 1557 1558 1558 1559 1560 1561 1562 1562 1562 1562 1562 1562 1560 1561 1562 1562 1562 1563 1564 1564 1565 1565 1566 1566 1566 1567 1567 1568 1567 1568 1568 1569 1569 1569 1569 1569 1570 1570
1509 1509 1511 1513 1515 1516 1517 1519 1520 1522 1525 1527 1530 1531 1532 1533 1535 1537 1538 1539 1540 1541 1542 1543 1544 1546 1546 1546 1546 1547 1547 1548 1549 1549 1549 1549 1550 1550 1551 1552 1553 1554 1554 1555 1555 1555 1556 1557 1557 1558 1559 1560 1561 1561 1561 1561 1560 1560 1560 1559 1560 1561 1561 1562 1563 1564 1564 1564 1565 1566 1566 1566 1566 1567 1567 1567 1567 1568 1569 1569 1569 1569 1569 1569 1570
1508 1508 1510 1513 1515 1516 1517 1518 1520 1522 1525 1527 1530 1531 1532 1534 1535 1537 1538 1539 1540 1541 1543 1544 1545 1546 1546 1546 1546 1546 1547 1548 1549 1549 1549 1549 1549 1550 1551 1552 1553 1553 1554 1554 1554 1555 1556 1556 1557 1558 1559 1560 1560 1560 1560 1560 1560 1560 1559 1559 1559 1560 1561 1562 1564 1565 1565 1565 1565 1566 1567 1567 1567 1567 1567 1568 1567 1568 1568 1568 1569 1569 1569 1569 1569
1507 1508 1510 1512 1514 1516 1517 1518 1521 1523 1525 1527 1529 1532 1533 1534 1535 1537 1538 1539 1541 1542 1544 1545 1545 1546 1546 1546 1546 1546 1547 1548 1549 1549 1549 1549 1549 1550 1551 1552 1553 1553 1553 1554 1554 1554 1555 1556 1557 1557 1559 1559 1560 1560 1560 1560 1560 1559 1558 1558 1559 1560 1561 1562 1563 1565 1566 1568 1568 1567 1568 1568 1568 1568 1568 1568 1568 1568 1568 1568 1568 1568 1568 1569 1569
1506 1507 1509 1511 1513 1516 1518 1519 1522 1524 1526 1527 1529 1532 1534 1535 1536 1537 1538 1539 1541 1543 1544 1545 1546 1546 1546 1546 1546 1546 1547 1548 1548 1548 1548 1548 1548 1549 1550 1551 1552 1552 1552 1553 1554 1554 1555 1555 1556 1557 1559 1559 1559 1560 1560 1560 1559 1558 1557 1558 1559 1560 1561 1562 1564 1565 1566 1568 1570 1569 1569 1568 1568 1568 1568 1568 1568 1568 1568 1568 1568 1568 1568 1568 1569
1505 1507 1508 1510 1513 1517 1519 1520 1523 1525 1526 1528 1529 1532 1535 1536 1537 1538 1539 1540 1542 1543 1544 1545 1546 1546 1545 1545 1545 1545 1546 1547 1548 1548 1548 1547 1547 1548 1549 1550 1551 1552 1552 1553 1554 1554 1554 1555 1556 1557 1558 1559 1559 1559 1560 1559 1558 1558 1558 1558 1559 1560 1561 1562 1564 1565 1566 1567 1568 1569 1569 1569 1569 1568 1568 1568 1568 1568 1568 1568 1568 1568 1568 1568 1569
1505 1507 1509 1512 1515 1518 1521 1522 1524 1526 1527 1528 1530 1532 1535 1536 1538 1539 1540 1541 1542 1543 1543 1544 1544 1545 1545 1545 1545 1545 1546 1547 1547 1547 1547 1547 1547 1548 1549 1550 1550 1551 1552 1552 1553 1553 1554 1555 1556 1557 1557 1558 1559 1559 1559 1559 1559 1558 1558 1558 1559 1560 1561 1561 1563 1564 1565 1566 1566 1567 1568 1569 1569 1568 1568 1568 1568 1568 1568 1568 1568 1568 1568 1568 1568
1505 1508 1511 1513 1516 1520 1523 1524 1526 1527 1528 1529 1531 1533 1534 1536 1538 1539 1541 1542 1542 1542 1543 1543 1543 1543 1544 1544 1545 1545 1545 1546 1546 1546 1546 1547 1548 1549 1549 1549 1550 1551 1551 1552 1552 1553 1553 1554 1555 1556 1557 1558 1558 1558 1559 1559 1559 1558 1558 1558 1559 1560 1560 1560 1561 1562 1563 1565 1565 1567 1568 1569 1569 1569 1568 1568 1568 1568 1569 1569 1569 1569 1569 1569 1569
1505 1508 1511 1514 1518 1521 1523 1525 1526 1527 1529 1530 1532 1533 1535 1536 1538 1539 1540 1541 1541 1542 1542 1542 1543 1543 1543 1544 1544 1545 1545 1545 1545 1545 1546 1547 1547 1548 1549 1549 1550 1550 1551 1551 1552 1552 1553 1554 1554 1555 1556 1557 1558 1558 1558 1559 1559 1558 1558 1559 1559 1560 1560 1560 1561 1562 1563 1565 1565 1566 1568 1569 1569 1569 1569 1568 1568 1568 1569 1569 1569 1569 1569 1569 1569
1507 1508 1510 1514 1518 1521 1522 1525 1527 1528 1530 1531 1533 1534 1535 1536 1537 1539 1540 1540 1541 1542 1542 1542 1543 1543 1543 1543 1544 1544 1545 1545 1545 1545 1546 1547 1547 1548 1548 1549 1549 1550 1550 1551 1551 1552 1552 1553 1554 1555 1556 1557 1557 1558 1558 1559 1559 1559 1558 1558 1559 1560 1560 1560 1561 1562 1563 1564 1565 1566 1568 1568 1569 1569 1569 1568 1568 1568 1569 1569 1569 1569 1569 1569 1569
1507 1506 1508 1512 1516 1520 1523 1525 1528 1530 1531 1532 1533 1534 1535 1536 1537 1539 1540 1541 1542 1542 1542 1543 1543 1543 1543 1543 1543 1544 1544 1545 1545 1546 1546 1546 1547 1547 1547 1548 1549 1549 1550 1550 1551 1551 1552 1553 1553 1554 1555 1556 1557 1557 1558 1559 1559 1559 1559 1558 1559 1560 1560 1560 1561 1562 1563 1564 1565 1566 1567 1567 1568 1568 1568 1568 1568 1568 1568 1568 1568 1568 1568 1569 1569
1506 1505 1507 1512 1516 1519 1523 1526 1528 1530 1531 1532 1533 1534 1535 1536 1537 1538 1540 1541 1542 1542 1543 1543 1543 1543 1544 1544 1544 1544 1545 1545 1546 1546 1547 1546 1547 1547 1547 1548 1548 1549 1550 1550 1551 1551 1552 1552 1553 1554 1555 1556 1556 1557 1558 1559 1559 1560 1560 1559 1559 1560 1561 1561 1562 1562 1563 1563 1564 1564 1565 1566 1567 1567 1567 1567 1567 1567 1567 1567 1568 1568 1569 1570 1570
1506 1506 1507 1513 1517 1520 1523 1526 1527 1529 1531 1532 1533 1534 1535 1536 1537 1538 1539 1541 1541 1542 1542 1543 1543 1543 1544 1544 1544 1544 1545 1545 1546 1546 1547 1547 1547 1547 1547 1548 1548 1549 1550 1551 1551 1552 1552 1552 1552 1553 1554 1555 1556 1556 1557 1558 1559 1559 1560 1560 1559 1560 1561 1562 1562 1562 1562 1562 1562 1563 1564 1565 1566 1566 1566 1567 1567 1567 1567 1567 1568 1569 1570 1570 1570
1506 1507 1509 1512 1516 1519 1522 1525 1526 1528 1530 1531 1532 1534 1536 1536 1537 1538 1539 1541 1541 1542 1542 1543 1543 1543 1544 1544 1544 1545 1545 1546 1546 1546 1547 1547 1548 1548 1549 1549 1549 1550 1550 1551 1551 1551 1552 1552 1552 1553 1554 1555 1555 1556 1557 1557 1558 1558 1559 1559 1560 1560 1562 1562 1562 1562 1561 1561 1562 1563 1564 1565 1565 1565 1566 1566 1567 1566 1567 1567 1568 1569 1569 1570 1570
1507 1509 1511 1511 1513 1516 1520 1523 1525 1527 1529 1530 1532 1534 1536 1537 1538 1539 1540 1540 1541 1542 1542 1543 1543 1543 1544 1545 1545 1545 1546 1546 1546 1547 1547 1547 1548 1549 1549 1549 1550 1550 1550 1551 1551 1551 1552 1552 1553 1553 1553 1554 1555 1555 1556 1556 1557 1557 1558 1559 1560 1561 1563 1564 1563 1562 1562 1562 1562 1563 1563 1564 1565 1565 1566 1566 1566 1566 1567 1567 1568 1568 1569 1569 1569
1509 1510 1511 1512 1514 1517 1520 1522 1524 1525 1527 1528 1531 1533 1535 1537 1538 1539 1540 1540 1541 1541 1542 1543 1543 1543 1544 1544 1545 1546 1546 1546 1546 1547 1547 1548 1549 1549 1550 1550 1550 1551 1551 1551 1552 1552 1552 1553 1553 1553 1554 1554 1555 1555 1555 1556 1556 1557 1557 1558 1559 1560 1563 1565 1564 1563 1563 1563 1563 1564 1564 1565 1565 1566 1566 1566 1566 1566 1567 1567 1568 1568 1568 1568 1568
1510 1511 1511 1513 1515 1517 1520 1522 1523 1525 1526 1528 1529 1532 1534 1536 1537 1538 1539 1540 1540 1541 1541 1542 1542 1543 1543 1544 1545 1546 1546 1546 1546 1547 1547 1548 1549 1549 1550 1550 1551 1551 1551 1551 1552 1553 1553 1553 1553 1554 1554 1555 1555 1555 1555 1555 1556 1557 1557 1557 1558 1560 1562 1563 1564 1564 1565 1564 1565 1564 1564 1565 1565 1566 1566 1566 1566 1566 1566 1567 1567 1567 1568 1568 1568
1510 1511 1512 1514 1516 1517 1520 1522 1523 1525 1527 1528 1529 1531 1533 1534 1535 1536 1538 1539 1540 1540 1541 1541 1542 1542 1543 1543 1544 1545 1545 1546 1546 1547 1547 1548 1548 1549 1550 1551 1551 1551 1552 1552 1552 1553 1554 1554 1554 1554 1554 1555 1555 1555 1555 1555 1556 1556 1557 1557 1557 1558 1560 1562 1563 1564 1565 1565 1565 1565 1565 1565 1566 1566 1566 1566 1566 1567 1567 1567 1567 1567 1567 1567 1568
1509 1511 1512 1514 1516 1518 1520 1521 1523 1525 1527 1528 1530 1531 1532 1533 1535 1536 1537 1538 1539 1540 1541 1541 1542 1542 1543 1543 1544 1545 1545 1546 1546 1546 1547 1548 1548 1549 1550 1551 1551 1552 1552 1553 1553 1553 1554 1554 1554 1554 1555 1555 1555 1555 1555 1555 1555 1556 1557 1557 1558 1558 1559 1561 1562 1563 1564 1564 1564 1565 1565 1565 1566 1567 1567 1567 1567 1567 1567 1567 1567 1567 1567 1568 1568
1508 1511 1512 1513 1516 1518 1519 1521 1523 1525 1526 1528 1529 1531 1532 1533 1535 1536 1537 1538 1538 1539 1541 1541 1542 1542 1543 1544 1544 1545 1545 1545 1546 1546 1547 1548 1549 1549 1550 1551 1551 1552 1553 1553 1553 1553 1554 1554 1554 1555 1555 1555 1555 1556 1556 1556 1556 1556 1556 1557 1558 1558 1559 1561 1561 1562 1563 1563 1564 1565 1565 1566 1566 1567 1567 1568 1568 1568 1568 1568 1568 1568 1568 1568 1568
1508 1510 1511 1513 1515 1517 1519 1520 1521 1523 1525 1526 1528 1530 1531 1532 1533 1535 1536 1537 1538 1539 1540 1541 1542 1543 1543 1544 1544 1545 1545 1545 1545 1546 1548 1549 1550 1550 1550 1551 1551 1552 1553 1553 1554 1554 1554 1554 1555 1555 1555 1556 1556 1556 1556 1556 1556 1556 1556 1557 1558 1558 1560 1561 1562 1562 1563 1563 1564 1565 1565 1566 1567 1567 1568 1569 1569 1569 1569 1569 1569 1569 1569 1569 1569
1507 1509 1511 1512 1514 1516 1517 1518 1520 1521 1523 1524 1526 1528 1530 1531 1532 1533 1534 1536 1537 1539 1540 1541 1542 1543 1543 1543 1544 1544 1545 1545 1545 1546 1547 1548 1549 1550 1551 1552 1552 1552 1553 1553 1554 1554 1554 1555 1555 1555 1556 1556 1557 1557 1557 1557 1557 1557 1557 1557 1558 1559 1560 1561 1562 1562 1563 1563 1564 1565 1566 1566 1567 1568 1569 1570 1570 1571 1571 1570 1570 1570 1570 1570 1570
1505 1508 1510 1510 1512 1514 1515 1516 1518 1520 1521 1522 1524 1526 1528 1529 1531 1531 1532 1534 1536 1538 1539 1540 1541 1542 1542 1543 1543 1543 1544 1545 1546 1547 1548 1548 1549 1550 1551 1552 1552 1552 1553 1553 1554 1554 1555 1555 1555 1555 1556 1557 1557 1557 1557 1557 1558 1558 1558 1558 1558 1559 1560 1560 1561 1562 1563 1563 1564 1565 1567 1567 1568 1569 1570 1571 1572 1572 1572 1572 1571 1571 1571 1571 1571